Location: Newark
(33.6439°N, 114.9881°W)
Time: 13:23:55
(UTC+00:00)

A-11 Canister half - Pass Details

Date: 25 August 2019
Orbit: 1527 x 1682 km, 47.3° (Epoch: 22 September)

Event Time Altitude Azimuth Distance (km) Brightness Sun altitude
Rises 04:15:34 0° 285° (WNW) 4,920 12.9 -23.7°
Reaches altitude 10° 04:22:29 10° 253° (WSW) 3,899 11.6 -24.9°
Maximum altitude 04:24:36 11° 240° (WSW) 3,819 11.3 -25.3°
Drops below altitude 10° 04:26:44 10° 227° (SW) 3,873 11.2 -25.7°
Sets 04:33:34 0° 194° (SSW) 4,811 11.4 -26.8°
